Location: Barrio de la Estaci�n
(40.5814°N, 3.9555°W)
Time: 01:37:19
(UTC+00:00)

Daily predictions for brighter satellites

Satellite Brightness Start Highest point End
(mag) Time Altitude Azimuth Time Altitude Azimuth Time Altitude Azimuth
Cosmos 1943 Rocket 3.8 04:06:38 29° NE 04:06:38 29° NE 04:09:35 10° NE
Cosmos 2082 Rocket 4.3 04:15:38 16° SSE 04:15:38 16° SSE 04:16:45 10° SSE
CENTAUR R/B 3.2 04:16:08 47° NE 04:16:08 47° NE 04:20:56 10° NE
NOSS 3-2 (A) 4.5 04:27:50 35° NNE 04:27:50 35° NNE 04:31:28 10° NNE
NOSS 3-2 (C) 3.5 04:33:35 64° ENE 04:33:35 64° ENE 04:38:57 10° NE
Meteor 2-3 Rocket 4.0 04:34:38 10° S 04:40:11 65° E 04:45:51 10° NNE
Cosmos 968 Rocket 3.9 04:42:38 54° SE 04:43:18 59° ESE 04:48:21 10° NNE
Gbstr 26 Del rocket 3.8 05:01:04 42° SE 05:01:04 42° SE 05:03:59 10° SE
USA 238 DEB 3.5 05:00:10 62° W 05:00:45 65° NW 05:07:32 10° NNE
USA 238 3.5 05:00:14 62° W 05:00:51 66° NW 05:07:38 10° NNE
Cosmos 1570 Rocket 3.9 05:02:26 76° SW 05:02:26 76° SW 05:07:28 10° SSE
Cosmos 2344 3.8 05:03:34 44° NW 05:03:46 44° NW 05:11:09 10° NNE
Cosmos 1816 Rocket 4.4 05:02:00 10° SSW 05:08:04 58° W 05:14:16 10° N
Cosmos 2034 Rocket 4.0 05:09:03 55° W 05:09:16 55° W 05:15:22 10° SSW
USA 215 3.9 05:03:29 10° ESE 05:09:42 49° NNE 05:13:03 27° NNW
Cosmos 1814 Rocket 4.3 05:12:28 46° SW 05:12:28 46° SW 05:16:27 10° S
Cosmos 1782 2.8 05:15:55 76° SSE 05:15:55 76° SSE 05:19:35 10° S
Meteor 1-31 Rocket 3.6 05:12:22 10° NNE 05:16:11 50° E 05:19:58 10° S
Cosmos 2369 Rocket 2.1 05:13:04 10° SSW 05:18:39 86° ESE 05:24:16 10° NNE
Cosmos 1862 4.3 05:17:08 10° SSE 05:20:54 46° E 05:24:42 10° NNE
SJ-12 3.9 05:17:29 10° NNE 05:21:38 86° E 05:25:47 10° SSW
COSMO-SKYMED 1 2.9 05:18:18 10° SSE 05:22:36 66° ENE 05:25:48 18° N
H-2A R/B 2.5 05:25:52 10° N 05:29:35 75° WNW 05:33:19 10° SSW
Helios 1B 4.5 05:27:18 10° SSE 05:31:37 89° E 05:34:31 21° NNW
Cosmos 1634 Rocket 3.9 05:25:20 10° N 05:31:38 80° W 05:37:50 10° S
Cosmos 1867 3.8 05:30:58 42° WNW 05:32:11 50° WSW 05:37:24 10° S
Cosmos 2208 Rocket 4.2 05:32:53 38° WNW 05:34:26 50° WSW 05:39:35 10° S
Tsikada Rocket 4.2 05:30:01 10° SSW 05:35:53 44° WNW 05:41:52 10° N
MOS 1-B Rocket 4.0 05:32:20 10° S 05:38:48 62° WSW 05:44:34 10° NNW
Cosmos 1656 Rocket 3.5 05:36:56 10° SSW 05:42:20 85° WNW 05:47:48 10° NNE
Cosmos 1503 Rocket 4.3 05:37:40 10° S 05:42:53 71° ESE 05:48:11 10° NNE
CZ-4C R/B 3.4 05:40:34 10° SSE 05:43:38 53° ENE 05:46:01 15° N
TSX-5 4.4 05:40:24 18° NNW 05:44:49 84° WSW 05:49:23 10° SSE
SKYMED 3 4.5 05:42:23 10° S 05:46:41 66° W 05:50:11 16° NNW
CZ-2C R/B 2.6 05:42:27 10° S 05:47:56 70° WSW 05:53:21 10° NNW
Cosmos 1943 Rocket 3.1 05:48:15 26° NW 05:48:15 26° NW 05:52:50 10° N
Cosmos 1486 Rocket 4.0 05:45:19 10° SSW 05:50:32 57° WNW 05:55:45 10° NNE
SL-8 R/B 4.4 05:54:21 23° NW 05:56:56 44° NNE 06:01:30 10° E
Iridium 2 4.1 05:56:32 10° SSW 06:00:05 38° W 06:03:39 10° NNW
Cosmos 2180 Rocket 4.5 05:55:40 10° N 06:01:52 85° E 06:07:59 10° S
SJ 16-02 2.9 06:00:19 10° S 06:04:22 38° ESE 06:08:26 10° NE
CENTAUR R/B 3.6 06:03:21 20° WNW 06:05:44 25° NNW 06:11:27 10° NNE
CZ-3 R/B 4.2 06:02:17 10° SSW 06:08:48 16° S 06:12:36 10° SE
NOAA 11 4.1 06:05:11 10° N 06:10:40 81° WNW 06:16:09 10° SSW
SKYMED 2 4.2 06:06:45 10° SSW 06:10:43 35° W 06:14:24 12° NNW
Cosmos 1340 Rocket 4.2 06:09:04 10° SSE 06:12:46 42° E 06:16:32 10° NNE
NOAA 12 4.4 06:10:33 10° NNE 06:15:50 73° ESE 06:21:03 10° S
Cosmos 1500 Rocket 4.4 06:11:52 10° S 06:16:11 54° E 06:20:33 10° NNE
Envisat 3.7 06:12:17 10° N 06:16:41 30° WNW 06:21:04 10° SW
SL-27 R/B 3.7 06:15:40 10° N 06:19:04 41° ENE 06:22:27 10° SE
DELTA 2 R/B (1) 3.8 06:13:49 11° WSW 06:19:10 73° S 06:24:43 10° E
Landsat 5 4.2 06:15:27 10° SSW 06:19:39 38° W 06:23:51 10° NNW
Meteor 2-8 Rocket 4.4 06:13:38 10° NNW 06:19:45 68° W 06:25:47 10° S
Meteor 2-6 Rocket 4.3 06:15:24 10° NNW 06:20:37 51° W 06:25:49 10° SSW
Cosmos 2098 Rocket 3.9 06:17:46 10° SW 06:20:57 25° WNW 06:24:48 10° NNW
Cosmos 1939 Rocket 3.2 06:18:20 10° NNE 06:22:15 67° E 06:26:06 10° S
Okean 3 Rocket 4.4 06:25:27 10° SW 06:29:28 31° WNW 06:33:32 10° NNW
Cosmos 921 Rocket 4.4 06:27:26 13° NW 06:30:06 21° W 06:33:26 10° SW
H-2A R/B 2.1 06:26:30 10° SSE 06:30:44 82° ENE 06:35:04 10° NNW
ATLAS 3B R/B 3.2 06:25:47 10° SSW 06:32:09 64° ESE 06:38:50 10° NE
Cosmos 1812 4.2 06:32:03 11° NW 06:34:18 17° W 06:36:52 10° SW
FALCON 9 R/B 4.1 06:14:07 11° W 06:34:47 54° SSW 06:40:42 10° SE
Cosmos 1174 3.4 06:32:57 10° SSW 06:35:55 69° ESE 06:38:56 10° NE
ATLAS 5 CENTAUR R/B 1.4 06:32:32 10° SSW 06:36:18 76° ESE 06:40:25 10° NE
Meteor 1-10 Rocket 4.4 06:31:31 10° NNW 06:36:54 52° W 06:42:14 10° S
Cosmos 1833 4.4 06:34:50 10° NNW 06:40:23 56° WSW 06:45:58 10° S
ADEOS 4.1 06:36:04 10° N 06:40:49 37° WNW 06:45:35 10° SW
Geosat FO 4.4 06:39:15 10° SSE 06:42:34 80° WSW 06:45:54 10° NNW
DNEPR-1 R/B 4.4 06:38:03 10° NW 06:42:53 52° WSW 06:48:41 10° SSE
Cosmos 1151 Rocket 4.4 06:39:51 10° NW 06:42:59 19° W 06:46:06 10° SW
Cosmos 1354 Rocket 4.4 06:38:10 10° SW 06:43:07 41° WNW 06:48:07 10° N
Cosmos 1515 4.2 06:43:28 10° N 06:47:15 64° E 06:51:01 10° SSE
Meteor PRIRODA 4.4 06:44:55 10° N 06:48:07 30° WNW 06:51:20 10° SW
CZ-2C R/B 3.3 06:44:36 10° N 06:49:13 44° WNW 06:54:00 10° SW
USA 215 3.6 06:46:18 10° SSE 06:52:38 53° SW 06:59:00 10° NW
